{"data":{"norad_id":46488,"epoch":"2026-05-25T03:02:04.021152Z","epoch_age_seconds":78308,"freshness":"FRESH","line1":"1 46488U 20068C   26145.12643543 -.00000128  00000+0 -99682-3 0  9991","line2":"2 46488  82.4982   1.4236 0014454  95.7910 264.4817 12.42890856256381","mean_motion":12.42890856,"eccentricity":0.0014454,"inclination_deg":82.4982,"raan_deg":1.4236,"arg_perigee_deg":95.791,"mean_anomaly_deg":264.4817,"bstar":-0.00099682,"rev_number":25638,"period_min":115.85892623222,"perigee_km":1482.9933213459,"apogee_km":1505.7511710749,"semimajor_km":7872.5092462104,"source":"CELESTRAK","updated_at":"2026-05-25T13:37:56.324145Z"}}